DW2537 Weather Reports


Display with metric or nautical units.
time (UTC)temp
F
wind
direction
speed
MPH
gust
MPH
rain 1hr
in
rain 24hr
in
rain mn
in
humidity
%
barometer
mb
20260507004015 66 227 0.0 2.0 0.00 0.18 0.18 82 1008.8
20260507003517 66 0 0.0 2.0 0.00 0.18 0.18 83 1008.7
20260507003030 67 227 0.0 2.0 0.00 0.18 0.18 82 1008.7
20260507002515 67 0 0.0 2.0 0.00 0.18 0.18 79 1008.7
20260507002016 67 227 0.0 2.0 0.00 0.18 0.18 82 1008.7
20260507001535 67 227 0.0 2.0 0.00 0.18 0.18 81 1008.8
20260507001016 67 226 0.0 2.0 0.00 0.18 0.18 81 1008.9
20260507000515 67 78 0.0 2.0 0.00 0.18 0.18 81 1008.9
20260507000031 67 119 0.0 2.0 0.00 0.18 0.18 81 1008.8
20260506235515 67 0 0.0 2.0 0.00 0.18 0.18 81 1008.8
20260506235016 67 155 0.0 2.0 0.00 0.18 0.18 80 1008.6
20260506234532 67 246 0.0 2.0 0.00 0.18 0.18 81 1008.6
20260506234016 67 227 0.0 2.0 0.00 0.18 0.18 80 1008.5
20260506233516 67 0 0.0 2.0 0.00 0.18 0.18 80 1008.6
20260506233031 68 0 0.0 2.0 0.00 0.18 0.18 80 1008.5
20260506232518 68 53 0.0 2.0 0.00 0.18 0.18 80 1008.3
20260506232016 68 36 0.0 2.0 0.00 0.18 0.18 76 1008.1
20260506231535 68 160 0.0 2.0 0.00 0.18 0.18 80 1008.1
20260506231018 68 146 0.0 2.0 0.00 0.18 0.18 79 1008.1
20260506230516 68 152 0.0 2.0 0.00 0.18 0.18 79 1008.2
20260506230031 68 313 0.0 3.0 0.00 0.18 0.18 79 1008.3
20260506225516 68 0 0.0 4.0 0.00 0.18 0.18 79 1008.2
20260506225015 68 200 1.0 4.0 0.00 0.18 0.18 76 1008.3
20260506224535 68 0 0.0 5.0 0.00 0.18 0.18 79 1008.2
20260506224016 68 244 1.0 5.0 0.00 0.18 0.18 74 1008.0
20260506223515 68 182 1.0 3.0 0.00 0.18 0.18 78 1008.2
20260506223043 68 246 1.0 5.0 0.00 0.18 0.18 75 1008.2
20260506222516 68 209 1.0 7.0 0.00 0.18 0.18 78 1008.1
20260506222016 68 212 1.0 7.0 0.00 0.18 0.18 77 1008.1
20260506221544 68 211 1.0 5.0 0.00 0.18 0.18 75 1008.2
20260506221016 68 163 1.0 5.0 0.00 0.18 0.18 77 1008.3
20260506220520 68 232 1.0 4.0 0.00 0.18 0.18 78 1008.2
20260506220050 69 211 2.0 4.0 0.00 0.18 0.18 77 1008.2
20260506215519 69 246 1.0 5.0 0.00 0.18 0.18 77 1008.2
20260506215018 69 13 1.0 9.0 0.00 0.18 0.18 77 1008.1
20260506214539 69 199 2.0 9.0 0.00 0.18 0.18 77 1008.3
20260506214019 69 249 2.0 8.0 0.00 0.18 0.18 74 1008.1
20260506213520 69 215 2.0 8.0 0.00 0.18 0.18 73 1008.1
20260506213039 69 246 1.0 8.0 0.00 0.18 0.18 75 1007.7
20260506212519 70 254 2.0 8.0 0.00 0.18 0.18 75 1007.9
20260506212018 70 197 1.0 8.0 0.00 0.18 0.18 75 1007.8
20260506211546 70 112 1.0 6.0 0.00 0.18 0.18 73 1007.8
20260506211019 70 30 1.0 8.0 0.00 0.18 0.18 75 1007.8
20260506210519 70 329 2.0 9.0 0.00 0.18 0.18 74 1007.7
20260506210035 70 190 2.0 9.0 0.00 0.18 0.18 74 1007.8
20260506205522 70 254 2.0 6.0 0.00 0.18 0.18 75 1007.7
20260506205019 70 201 2.0 6.0 0.00 0.18 0.18 72 1007.5
20260506204534 70 207 1.0 10.0 0.00 0.18 0.18 75 1007.5
20260506204022 71 144 2.0 10.0 0.00 0.18 0.18 74 1007.6
20260506203520 71 115 1.0 6.0 0.00 0.18 0.18 75 1007.6
20260506203040 70 188 1.0 6.0 0.00 0.18 0.18 75 1007.7
20260506202519 70 236 1.0 6.0 0.00 0.18 0.18 74 1007.6
20260506202020 70 332 1.0 10.0 0.00 0.18 0.18 74 1007.6
20260506201540 70 180 3.0 10.0 0.00 0.18 0.18 72 1007.7
20260506201020 70 192 2.0 8.0 0.00 0.18 0.18 75 1007.6
20260506200518 70 340 2.0 8.0 0.00 0.18 0.18 75 1007.6
20260506200038 70 208 1.0 8.0 0.00 0.18 0.18 75 1007.6
20260506195519 70 217 2.0 10.0 0.00 0.18 0.18 74 1007.7
20260506195020 70 9 2.0 10.0 0.00 0.18 0.18 75 1007.5
20260506194536 70 98 1.0 9.0 0.00 0.18 0.18 75 1007.6
20260506194018 70 319 2.0 10.0 0.00 0.18 0.18 73 1007.7
20260506193520 70 308 2.0 10.0 0.00 0.18 0.18 71 1007.8
20260506193038 70 182 3.0 10.0 0.00 0.18 0.18 71 1007.6
20260506192518 70 338 3.0 10.0 0.00 0.18 0.18 70 1007.9
20260506192020 70 163 2.0 10.0 0.00 0.18 0.18 71 1007.8
20260506191539 69 205 2.0 10.0 0.00 0.18 0.18 74 1008.0
20260506191020 69 74 3.0 10.0 0.00 0.18 0.18 76 1008.0
20260506190531 68 317 3.0 8.0 0.00 0.18 0.18 74 1008.0
20260506190030 68 86 2.0 8.0 0.00 0.18 0.18 79 1008.0
20260506185518 68 158 2.0 8.0 0.00 0.18 0.18 76 1008.1
20260506185016 68 229 1.0 4.0 0.00 0.18 0.18 75 1008.1
20260506184535 68 34 1.0 8.0 0.00 0.18 0.18 80 1008.2
20260506184016 68 151 1.0 8.0 0.00 0.18 0.18 77 1008.3
20260506183516 67 263 3.0 8.0 0.00 0.18 0.18 75 1008.3
20260506183034 67 197 3.0 10.0 0.00 0.18 0.18 79 1008.3
20260506182515 67 82 3.0 11.0 0.00 0.18 0.18 80 1008.3
20260506182015 67 219 3.0 11.0 0.00 0.18 0.18 80 1008.4
20260506181531 67 232 2.0 7.0 0.00 0.18 0.18 81 1008.5
20260506181016 67 171 3.0 8.0 0.00 0.18 0.18 80 1008.5
20260506180516 66 61 2.0 9.0 0.00 0.18 0.18 83 1008.5
20260506180037 66 207 3.0 10.0 0.00 0.18 0.18 82 1008.5
20260506175515 65 338 3.0 11.0 0.00 0.18 0.18 79 1008.7
20260506175016 65 39 4.0 11.0 0.00 0.18 0.18 81 1008.7
20260506174531 65 267 5.0 11.0 0.00 0.18 0.18 81 1008.7
20260506174015 65 347 2.0 8.0 0.00 0.18 0.18 81 1008.7
20260506173516 65 164 2.0 6.0 0.00 0.18 0.18 85 1008.8
20260506173035 64 235 1.0 12.0 0.00 0.18 0.18 86 1008.6
20260506172517 64 329 1.0 12.0 0.00 0.18 0.18 87 1008.8
20260506172020 64 132 3.0 11.0 0.00 0.18 0.18 86 1008.9
20260506171534 64 188 4.0 11.0 0.00 0.18 0.18 83 1008.8
20260506171016 64 321 2.0 9.0 0.00 0.18 0.18 88 1008.8
20260506170517 64 49 3.0 7.0 0.00 0.18 0.18 88 1008.7
20260506170032 64 267 2.0 7.0 0.00 0.18 0.18 88 1008.8
20260506165516 63 200 2.0 9.0 0.00 0.18 0.18 88 1008.8
20260506165020 63 232 3.0 9.0 0.00 0.18 0.18 89 1008.9
20260506164532 63 202 2.0 6.0 0.00 0.18 0.18 90 1009.0
20260506164018 63 260 2.0 10.0 0.00 0.18 0.18 90 1009.0
20260506163517 63 56 2.0 10.0 0.00 0.18 0.18 90 1009.1
20260506163031 63 204 1.0 7.0 0.01 0.18 0.18 91 1008.9
20260506162519 62 162 2.0 10.0 0.01 0.18 0.18 91 1008.8
20260506162019 62 108 2.0 11.0 0.01 0.18 0.18 91 1009.0
20260506161530 62 207 4.0 11.0 0.01 0.18 0.18 91 1008.9
20260506161016 62 18 1.0 4.0 0.02 0.18 0.18 92 1009.0
20260506160516 62 182 1.0 4.0 0.02 0.18 0.18 93 1009.0
20260506160035 62 198 1.0 9.0 0.02 0.18 0.18 93 1009.2
20260506155519 61 170 2.0 9.0 0.02 0.18 0.18 92 1009.2
20260506155019 61 195 2.0 9.0 0.03 0.18 0.18 92 1009.4
20260506154535 61 157 2.0 4.0 0.03 0.18 0.18 92 1009.4
20260506154019 61 333 1.0 7.0 0.05 0.18 0.18 92 1009.3
20260506153518 61 225 1.0 10.0 0.07 0.18 0.18 92 1009.1
20260506153043 61 334 1.0 10.0 0.07 0.17 0.17 92 1008.9
20260506152519 61 5 2.0 10.0 0.09 0.17 0.17 92 1009.1
20260506152019 61 207 1.0 5.0 0.09 0.17 0.17 93 1009.4
20260506151539 61 317 0.0 5.0 0.10 0.17 0.17 92 1009.7
20260506151019 61 221 0.0 6.0 0.10 0.16 0.16 93 1009.8
20260506150519 61 15 0.0 6.0 0.10 0.16 0.16 92 1010.0
20260506150048 61 204 0.0 7.0 0.12 0.16 0.16 92 1010.1
20260506145522 61 36 2.0 7.0 0.13 0.16 0.16 92 1010.1
20260506145019 61 298 1.0 7.0 0.12 0.15 0.15 92 1010.1
20260506144553 61 0 0.0 7.0 0.12 0.14 0.14 91 1010.2
20260506144019 61 150 0.0 5.0 0.12 0.13 0.13 90 1010.1
20260506143519 61 187 1.0 5.0 0.11 0.11 0.11 87 1010.2
20260506143049 61 202 1.0 2.0 0.09 0.09 0.09 90 1010.1
20260506142518 61 38 0.0 5.0 0.08 0.08 0.08 90 1010.1
20260506142018 61 261 1.0 5.0 0.08 0.08 0.08 90 1010.0
20260506141540 61 171 1.0 4.0 0.07 0.07 0.07 89 1010.2
20260506141021 62 22 1.0 6.0 0.06 0.06 0.06 88 1010.1
20260506140519 62 235 0.0 6.0 0.06 0.06 0.06 88 1010.1
20260506140055 62 291 0.0 4.0 0.04 0.04 0.04 87 1010.2
20260506135518 62 296 1.0 4.0 0.03 0.03 0.03 82 1010.2
20260506135018 63 5 0.0 4.0 0.03 0.03 0.03 85 1010.3
20260506134538 63 227 1.0 4.0 0.01 0.01 0.01 82 1010.6
20260506134019 63 232 0.0 4.0 0.01 0.01 0.01 83 1010.7
20260506133519 63 172 1.0 5.0 0.00 0.00 0.00 78 1010.7
20260506133034 64 164 1.0 5.0 0.00 0.00 0.00 81 1010.6
20260506132519 64 304 1.0 5.0 0.00 0.00 0.00 79 1010.4
20260506132021 64 66 1.0 5.0 0.00 0.00 0.00 75 1010.3
20260506131544 64 40 1.0 4.0 0.00 0.00 0.00 75 1010.0
20260506131017 64 10 0.0 7.0 0.00 0.00 0.00 76 1010.2
20260506130520 64 97 2.0 7.0 0.00 0.00 0.00 76 1010.0
20260506130059 64 5 1.0 8.0 0.00 0.00 0.00 76 1009.8
20260506125517 64 59 1.0 8.0 0.00 0.00 0.00 78 1009.8
20260506125016 64 197 1.0 5.0 0.00 0.00 0.00 79 1009.7
20260506124534 64 123 0.0 6.0 0.00 0.00 0.00 79 1009.8
20260506124016 64 229 1.0 6.0 0.00 0.00 0.00 77 1009.9
20260506123516 64 188 2.0 6.0 0.00 0.00 0.00 77 1009.9
20260506123038 64 0 0.0 4.0 0.00 0.00 0.00 77 1010.2
20260506122515 64 316 0.0 4.0 0.00 0.00 0.00 77 1010.1
20260506122016 64 88 2.0 4.0 0.00 0.00 0.00 76 1010.2
20260506121534 64 53 1.0 4.0 0.00 0.00 0.00 76 1010.3
20260506121016 64 257 1.0 4.0 0.00 0.00 0.00 73 1010.2
20260506120520 65 119 1.0 5.0 0.00 0.00 0.00 73 1010.3
20260506120034 65 182 1.0 7.0 0.00 0.00 0.00 72 1010.4
20260506115517 65 17 2.0 7.0 0.00 0.00 0.00 74 1010.3
20260506115018 65 167 2.0 6.0 0.00 0.00 0.00 74 1010.1
20260506114538 65 217 2.0 6.0 0.00 0.00 0.00 74 1010.2
20260506114019 65 138 1.0 5.0 0.00 0.00 0.00 74 1010.0
20260506113515 65 55 1.0 9.0 0.00 0.00 0.00 74 1009.8
20260506113042 65 220 2.0 9.0 0.00 0.00 0.00 73 1009.9
20260506112518 65 25 1.0 12.0 0.00 0.00 0.00 74 1009.7
20260506112017 65 226 2.0 12.0 0.00 0.00 0.00 70 1009.7
20260506111533 65 344 3.0 9.0 0.00 0.00 0.00 74 1009.8
20260506111016 65 61 2.0 9.0 0.00 0.00 0.00 75 1009.7
20260506110518 64 144 1.0 8.0 0.00 0.00 0.00 74 1009.6
20260506110041 64 308 2.0 8.0 0.00 0.00 0.00 75 1009.5
20260506105517 64 161 1.0 8.0 0.00 0.00 0.00 75 1009.5
20260506105020 64 251 1.0 8.0 0.00 0.00 0.00 75 1009.4
20260506104533 64 313 2.0 8.0 0.00 0.00 0.00 75 1009.6
20260506104020 64 61 1.0 4.0 0.00 0.00 0.00 75 1009.4
20260506103516 64 285 1.0 7.0 0.00 0.00 0.00 75 1009.4
20260506103032 64 73 1.0 7.0 0.00 0.00 0.00 75 1009.4
20260506102517 64 218 1.0 5.0 0.00 0.00 0.00 75 1009.5
20260506102016 64 64 0.0 5.0 0.00 0.00 0.00 75 1009.5
20260506101534 64 180 0.0 3.0 0.00 0.00 0.00 75 1009.6
20260506101015 64 231 1.0 3.0 0.00 0.00 0.00 75 1009.5
20260506100516 64 123 0.0 3.0 0.00 0.00 0.00 75 1009.4
20260506100036 64 340 0.0 4.0 0.00 0.00 0.00 75 1009.4
20260506095516 64 225 1.0 4.0 0.00 0.00 0.00 74 1009.5
20260506095019 64 46 1.0 4.0 0.00 0.00 0.00 74 1009.4
20260506094534 64 144 1.0 6.0 0.00 0.00 0.00 74 1009.5
20260506094019 64 277 1.0 6.0 0.00 0.00 0.00 74 1009.6
20260506093520 64 332 0.0 4.0 0.00 0.00 0.00 74 1009.5
20260506093039 64 65 1.0 5.0 0.00 0.00 0.00 73 1009.5
20260506092519 65 235 1.0 7.0 0.00 0.00 0.00 73 1009.6
20260506092019 65 256 1.0 7.0 0.00 0.00 0.00 73 1009.6
20260506091540 65 237 1.0 7.0 0.00 0.00 0.00 73 1009.6
20260506091024 65 346 1.0 6.0 0.00 0.00 0.00 72 1009.6
20260506090520 65 173 1.0 7.0 0.00 0.00 0.00 72 1009.6
20260506090041 65 169 1.0 7.0 0.00 0.00 0.00 72 1009.7
20260506085520 65 111 1.0 5.0 0.00 0.00 0.00 71 1009.7
20260506085020 66 194 1.0 7.0 0.00 0.00 0.00 71 1009.8
20260506084540 66 142 1.0 7.0 0.00 0.00 0.00 71 1009.8
20260506084019 66 198 2.0 7.0 0.00 0.00 0.00 71 1009.7
20260506083519 66 112 1.0 7.0 0.00 0.00 0.00 70 1009.7
20260506083035 66 248 1.0 7.0 0.00 0.00 0.00 69 1009.7
20260506082519 66 229 2.0 7.0 0.00 0.00 0.00 69 1009.8
20260506082019 66 302 1.0 5.0 0.00 0.00 0.00 69 1009.8
20260506081533 66 173 1.0 5.0 0.00 0.00 0.00 69 1009.7
20260506081019 67 280 1.0 4.0 0.00 0.00 0.00 69 1009.6
20260506080520 67 190 1.0 4.0 0.00 0.00 0.00 68 1009.6
20260506073522 67 288 1.0 8.0 0.00 0.00 0.00 66 1009.6
20260506073039 68 57 1.0 8.0 0.00 0.00 0.00 66 1009.6
20260506072518 68 80 0.0 3.0 0.00 0.00 0.00 66 1009.8
20260506072019 68 352 1.0 6.0 0.00 0.00 0.00 65 1009.8
20260506071542 68 205 1.0 7.0 0.00 0.00 0.00 64 1009.8
20260506071019 68 178 2.0 7.0 0.00 0.00 0.00 64 1009.8
20260506070519 69 175 1.0 8.0 0.00 0.00 0.00 63 1009.9
20260506062515 69 263 1.0 7.0 0.00 0.00 0.00 61 1010.0
20260506062022 70 178 1.0 9.0 0.00 0.00 0.00 61 1010.0
20260506061545 70 304 2.0 9.0 0.00 0.00 0.00 61 1010.0
20260506061019 70 62 1.0 9.0 0.00 0.00 0.00 60 1009.9
20260506060516 70 51 1.0 9.0 0.00 0.00 0.00 60 1009.9
20260506051016 71 230 1.0 10.0 0.00 0.00 0.00 55 1010.5
20260506050516 71 71 1.0 7.0 0.00 0.00 0.00 55 1010.5
20260506045015 72 98 1.0 8.0 0.00 0.00 0.00 54 1010.5
20260506044544 72 90 1.0 8.0 0.00 0.00 0.00 54 1010.6
20260506044016 72 141 1.0 9.0 0.00 0.00 0.00 53 1010.7
20260506043519 72 40 2.0 10.0 0.00 0.00 0.00 53 1010.6
20260506043032 72 161 3.0 10.0 0.00 0.00 0.00 53 1010.7
20260506042517 72 342 3.0 8.0 0.00 0.00 0.00 53 1010.5
20260506042020 72 319 2.0 7.0 0.00 0.00 0.00 53 1010.4
20260506041536 72 227 2.0 5.0 0.00 0.00 0.00 53 1010.4
20260506041021 72 283 1.0 6.0 0.00 0.00 0.00 53 1010.4
20260506040516 72 5 1.0 13.0 0.00 0.00 0.00 52 1010.6
20260506040035 72 179 3.0 13.0 0.00 0.00 0.00 52 1010.5
20260506035516 72 167 2.0 9.0 0.00 0.00 0.00 49 1010.5
20260506035016 72 39 2.0 10.0 0.00 0.00 0.00 52 1010.5
20260506034530 72 212 2.0 10.0 0.00 0.00 0.00 51 1010.4
20260506034019 72 338 2.0 11.0 0.00 0.00 0.00 52 1010.5
20260506033517 72 232 2.0 11.0 0.00 0.00 0.00 52 1010.3
20260506033033 72 37 2.0 4.0 0.00 0.00 0.00 51 1010.5
20260506032516 72 273 2.0 10.0 0.00 0.00 0.00 51 1010.4
20260506032019 72 288 1.0 10.0 0.00 0.00 0.00 50 1010.3
20260506031544 72 182 1.0 11.0 0.00 0.00 0.00 51 1010.3
20260506031016 72 221 2.0 10.0 0.00 0.00 0.00 50 1010.3
20260506030516 72 267 1.0 12.0 0.00 0.00 0.00 50 1010.2
20260506030032 72 69 2.0 12.0 0.00 0.00 0.00 50 1010.2
20260506025515 72 14 1.0 7.0 0.00 0.00 0.00 49 1010.3
20260506025019 73 153 2.0 7.0 0.00 0.00 0.00 49 1010.3
20260506024534 73 0 2.0 8.0 0.00 0.00 0.00 48 1010.3
20260506024016 73 141 2.0 8.0 0.00 0.00 0.00 48 1010.5
20260506023516 72 33 1.0 8.0 0.00 0.00 0.00 48 1010.6
20260506023035 72 170 1.0 4.0 0.00 0.00 0.00 47 1010.6
20260506022516 72 63 1.0 4.0 0.00 0.00 0.00 47 1010.6
20260506022016 72 94 1.0 4.0 0.00 0.00 0.00 47 1010.6
20260506021533 72 182 0.0 4.0 0.00 0.00 0.00 46 1010.5
20260506021016 72 136 1.0 9.0 0.00 0.00 0.00 45 1010.5
20260506020518 73 46 1.0 9.0 0.00 0.00 0.00 44 1010.6
20260506020034 73 163 0.0 2.0 0.00 0.00 0.00 44 1010.5
20260506015518 73 0 0.0 4.0 0.00 0.00 0.00 43 1010.5
20260506015017 73 148 1.0 4.0 0.00 0.00 0.00 43 1010.4
20260506014533 74 277 1.0 5.0 0.00 0.00 0.00 43 1010.3
20260506014016 74 221 1.0 5.0 0.00 0.00 0.00 39 1010.2
20260506013517 74 166 2.0 5.0 0.00 0.00 0.00 39 1010.2
20260506013033 74 0 1.0 6.0 0.00 0.00 0.00 42 1010.2
20260506012516 74 145 2.0 6.0 0.00 0.00 0.00 41 1010.1
20260506012016 74 252 1.0 7.0 0.00 0.00 0.00 42 1010.1
20260506011543 74 173 1.0 7.0 0.00 0.00 0.00 41 1010.1
20260506011018 74 205 2.0 7.0 0.00 0.00 0.00 41 1009.9
20260506010520 74 81 0.0 2.0 0.00 0.00 0.00 38 1009.7
20260506010050 75 24 0.0 2.0 0.00 0.00 0.00 40 1009.8
20260506005519 75 0 0.0 7.0 0.00 0.00 0.00 40 1009.7
20260506005015 75 246 1.0 7.0 0.00 0.00 0.00 37 1009.7
20260506004532 76 348 1.0 6.0 0.00 0.00 0.00 39 1009.5